FW4702 Weather Reports


Display with metric or nautical units.
time (UTC)temp
F
wind
direction
speed
MPH
gust
MPH
rain 1hr
in
rain 24hr
in
rain mn
in
humidity
%
barometer
mb
20260510224055 78 0 1.0 2.0 0.00 0.00 0.00 50 1016.0
20260510223556 76 0 0.0 2.0 0.00 0.00 0.00 53 1016.1
20260510223059 77 0 0.0 1.0 0.00 0.00 0.00 59 1016.1
20260510222558 77 0 0.0 1.0 0.00 0.00 0.00 50 1016.0
20260510222057 77 0 0.0 1.0 0.00 0.00 0.00 56 1016.0
20260510221604 77 0 0.0 1.0 0.00 0.00 0.00 57 1016.1
20260510221100 78 0 0.0 1.0 0.00 0.00 0.00 53 1016.2
20260510220601 78 0 0.0 1.0 0.00 0.00 0.00 53 1016.3
20260510220100 78 0 0.0 1.0 0.00 0.00 0.00 49 1016.3
20260510215557 78 5 0.0 2.0 0.00 0.00 0.00 51 1016.3
20260510215057 79 0 0.0 2.0 0.00 0.00 0.00 48 1016.3
20260510214603 79 55 0.0 3.0 0.00 0.00 0.00 47 1016.3
20260510214057 79 0 1.0 3.0 0.00 0.00 0.00 47 1016.4
20260510213558 79 352 0.0 2.0 0.00 0.00 0.00 47 1016.4
20260510213102 78 0 0.0 1.0 0.00 0.00 0.00 49 1016.3
20260510212601 78 339 0.0 2.0 0.00 0.00 0.00 50 1016.5
20260510212058 78 0 0.0 2.0 0.00 0.00 0.00 47 1016.5
20260510211557 79 0 0.0 2.0 0.00 0.00 0.00 47 1016.4
20260510211056 79 0 0.0 2.0 0.00 0.00 0.00 47 1016.5
20260510210600 79 182 0.0 2.0 0.00 0.00 0.00 49 1016.5
20260510210057 78 0 0.0 3.0 0.00 0.00 0.00 47 1016.5
20260510205558 79 0 1.0 3.0 0.00 0.00 0.00 45 1016.4
20260510205059 78 327 0.0 3.0 0.00 0.00 0.00 51 1016.5
20260510204608 78 0 0.0 4.0 0.00 0.00 0.00 53 1016.5
20260510204058 79 290 1.0 4.0 0.00 0.00 0.00 48 1016.5
20260510203557 79 0 1.0 4.0 0.00 0.00 0.00 50 1016.5
20260510203107 79 311 0.0 4.0 0.00 0.00 0.00 52 1016.7
20260510202558 78 272 0.0 2.0 0.00 0.00 0.00 54 1016.8
20260510202058 78 0 1.0 3.0 0.00 0.00 0.00 53 1016.8
20260510201605 78 208 0.0 3.0 0.00 0.00 0.00 59 1017.0
20260510201057 78 74 0.0 2.0 0.00 0.00 0.00 58 1017.0
20260510200557 78 218 0.0 2.0 0.00 0.00 0.00 52 1017.0
20260510200057 79 0 0.0 2.0 0.00 0.00 0.00 56 1017.2
20260510195557 79 86 0.0 4.0 0.00 0.00 0.00 53 1017.2
20260510195057 79 0 1.0 4.0 0.00 0.00 0.00 54 1017.0
20260510194559 78 0 0.0 3.0 0.00 0.00 0.00 55 1017.1
20260510194057 79 0 0.0 3.0 0.00 0.00 0.00 54 1017.2
20260510193557 79 221 1.0 3.0 0.00 0.00 0.00 61 1017.2
20260510193111 78 225 0.0 5.0 0.00 0.00 0.00 58 1017.3
20260510192557 78 0 0.0 5.0 0.00 0.00 0.00 57 1017.3
20260510192101 78 320 2.0 5.0 0.00 0.00 0.00 56 1017.2
20260510191600 78 327 1.0 3.0 0.00 0.00 0.00 57 1017.2
20260510191057 77 0 0.0 4.0 0.00 0.00 0.00 58 1017.2
20260510190558 77 39 0.0 5.0 0.00 0.00 0.00 62 1017.3
20260510190104 77 0 2.0 5.0 0.00 0.00 0.00 58 1017.5
20260510185558 78 186 1.0 3.0 0.00 0.00 0.00 60 1017.5
20260510185057 78 345 0.0 4.0 0.00 0.00 0.00 61 1017.5
20260510184555 78 0 0.0 13.0 0.00 0.00 0.00 60 1017.6
20260510184054 77 330 1.0 13.0 0.00 0.00 0.00 59 1017.5
20260510183557 77 0 0.0 0.0 0.00 0.00 0.00 60 1017.5
20260510183059 76 0 0.0 0.0 0.00 0.00 0.00 58 1017.6
20260510182557 76 0 0.0 0.0 0.00 0.00 0.00 68 1017.6
20260510182057 75 0 0.0 0.0 0.00 0.00 0.00 68 1017.6
20260510181601 75 0 0.0 0.0 0.00 0.00 0.00 67 1017.7
20260510181104 76 0 0.0 0.0 0.00 0.00 0.00 68 1017.7
20260510180558 77 0 0.0 0.0 0.00 0.00 0.00 66 1017.8
20260510180059 76 0 0.0 0.0 0.00 0.00 0.00 63 1017.9
20260510175557 75 0 0.0 0.0 0.00 0.00 0.00 68 1017.9
20260510175057 74 0 0.0 0.0 0.00 0.00 0.00 69 1017.9
20260510174556 74 0 0.0 0.0 0.00 0.00 0.00 75 1018.0
20260510174059 73 0 0.0 0.0 0.00 0.00 0.00 75 1018.0
20260510173557 74 0 0.0 0.0 0.00 0.00 0.00 73 1018.1
20260510173111 74 0 0.0 0.0 0.00 0.00 0.00 70 1018.1
20260510172600 73 0 0.0 0.0 0.00 0.00 0.00 72 1018.1
20260510172101 73 0 0.0 0.0 0.00 0.00 0.00 69 1018.1
20260510171601 74 0 0.0 0.0 0.00 0.00 0.00 71 1018.1
20260510171058 75 0 0.0 0.0 0.00 0.00 0.00 68 1018.0
20260510170557 75 0 0.0 0.0 0.00 0.00 0.00 72 1017.9
20260510170058 75 0 0.0 0.0 0.00 0.00 0.00 69 1017.9
20260510165558 75 0 0.0 0.0 0.00 0.00 0.00 74 1018.0
20260510165058 75 0 0.0 0.0 0.00 0.00 0.00 71 1018.0
20260510164613 75 0 0.0 0.0 0.00 0.00 0.00 71 1018.0
20260510164057 74 0 0.0 0.0 0.00 0.00 0.00 76 1018.2
20260510163558 73 0 0.0 0.0 0.00 0.00 0.00 79 1018.1
20260510163103 73 0 0.0 0.0 0.00 0.00 0.00 82 1018.2
20260510162559 73 0 0.0 0.0 0.00 0.00 0.00 82 1018.2
20260510162057 72 0 0.0 0.0 0.00 0.00 0.00 82 1018.4
20260510161557 72 0 0.0 0.0 0.00 0.00 0.00 83 1018.2
20260510161052 72 0 0.0 0.0 0.00 0.00 0.00 83 1018.1
20260510160555 72 0 0.0 0.0 0.00 0.00 0.00 84 1018.1
20260510160057 71 0 0.0 0.0 0.00 0.00 0.00 84 1018.3
20260510155552 71 0 0.0 0.0 0.00 0.00 0.00 85 1018.2
20260510155052 71 0 0.0 0.0 0.00 0.00 0.00 84 1018.2
20260510154555 71 0 0.0 0.0 0.00 0.00 0.00 86 1018.1
20260510154057 72 0 0.0 0.0 0.00 0.00 0.00 86 1018.1
20260510153556 71 0 0.0 0.0 0.00 0.00 0.00 86 1018.1
20260510153057 71 0 0.0 0.0 0.00 0.00 0.00 87 1018.1
20260510152558 70 0 0.0 0.0 0.00 0.00 0.00 88 1018.1
20260510152056 69 0 0.0 0.0 0.00 0.00 0.00 91 1018.2
20260510151604 68 0 0.0 0.0 0.00 0.00 0.00 91 1018.2
20260510151056 68 0 0.0 0.0 0.00 0.00 0.00 93 1018.2
20260510150556 67 0 0.0 0.0 0.00 0.00 0.00 95 1018.1
20260510150104 66 0 0.0 0.0 0.00 0.00 0.00 95 1018.2
20260510145555 66 0 0.0 0.0 0.00 0.00 0.00 96 1018.1
20260510145055 65 0 0.0 0.0 0.00 0.00 0.00 97 1018.3
20260510144555 65 0 0.0 0.0 0.00 0.00 0.00 98 1018.2
20260510144056 64 0 0.0 0.0 0.00 0.00 0.00 97 1018.4
20260510143555 64 0 0.0 0.0 0.00 0.00 0.00 98 1018.3
20260510143058 64 0 0.0 0.0 0.00 0.00 0.00 98 1018.5
20260510142555 63 0 0.0 0.0 0.00 0.00 0.00 98 1018.3
20260510142055 63 0 0.0 0.0 0.00 0.00 0.00 98 1018.4
20260510141559 63 0 0.0 0.0 0.00 0.00 0.00 98 1018.3
20260510141056 63 0 0.0 0.0 0.00 0.00 0.00 98 1018.3
20260510140559 63 0 0.0 0.0 0.00 0.00 0.00 98 1018.4
20260510140056 63 0 0.0 0.0 0.00 0.00 0.00 98 1018.4
20260510135556 63 0 0.0 0.0 0.00 0.00 0.00 99 1018.3
20260510135056 62 0 0.0 0.0 0.00 0.00 0.00 99 1018.3
20260510134555 62 0 0.0 0.0 0.00 0.00 0.00 98 1018.2
20260510134054 62 0 0.0 0.0 0.00 0.00 0.00 98 1018.1
20260510133557 62 0 0.0 0.0 0.00 0.00 0.00 98 1018.2
20260510133057 62 0 0.0 0.0 0.00 0.00 0.00 98 1018.0
20260510132555 62 0 0.0 0.0 0.00 0.00 0.00 98 1018.1
20260510132056 62 0 0.0 0.0 0.00 0.00 0.00 98 1018.1
20260510131556 62 0 0.0 0.0 0.00 0.00 0.00 98 1018.0
20260510131056 62 0 0.0 0.0 0.00 0.00 0.00 98 1018.0
20260510130555 62 0 0.0 0.0 0.00 0.00 0.00 98 1017.9
20260510130057 62 0 0.0 0.0 0.00 0.00 0.00 98 1017.9
20260510125557 62 0 0.0 0.0 0.00 0.00 0.00 98 1017.8
20260510125057 61 0 0.0 0.0 0.00 0.00 0.00 98 1017.8
20260510124556 61 0 0.0 0.0 0.00 0.00 0.00 98 1017.7
20260510124057 61 0 0.0 0.0 0.00 0.00 0.00 98 1017.5
20260510123558 61 0 0.0 0.0 0.00 0.00 0.00 98 1017.4
20260510123056 61 0 0.0 0.0 0.00 0.00 0.00 98 1017.4
20260510122557 61 0 0.0 0.0 0.00 0.00 0.00 98 1017.3
20260510122057 61 0 0.0 0.0 0.00 0.00 0.00 98 1017.1
20260510121558 61 0 0.0 0.0 0.00 0.00 0.00 98 1017.1
20260510121058 61 0 0.0 0.0 0.00 0.00 0.00 98 1017.1
20260510120558 61 0 0.0 0.0 0.00 0.00 0.00 98 1017.2
20260510120058 60 0 0.0 0.0 0.00 0.00 0.00 98 1017.0
20260510115557 60 0 0.0 0.0 0.00 0.00 0.00 98 1016.9
20260510115057 60 0 0.0 0.0 0.00 0.00 0.00 98 1016.7
20260510114606 60 0 0.0 0.0 0.00 0.00 0.00 98 1016.7
20260510114057 60 0 0.0 0.0 0.00 0.00 0.00 98 1016.6
20260510113557 60 0 0.0 0.0 0.00 0.00 0.00 98 1016.5
20260510113057 60 0 0.0 0.0 0.00 0.00 0.00 98 1016.6
20260510112557 59 0 0.0 0.0 0.00 0.00 0.00 98 1016.4
20260510112057 59 0 0.0 0.0 0.00 0.00 0.00 98 1016.5
20260510111557 59 0 0.0 0.0 0.00 0.00 0.00 98 1016.3
20260510111059 59 0 0.0 0.0 0.00 0.00 0.00 98 1016.2
20260510110558 58 0 0.0 0.0 0.00 0.00 0.00 98 1016.2
20260510110101 58 0 0.0 0.0 0.00 0.00 0.00 98 1016.2
20260510105558 58 0 0.0 0.0 0.00 0.00 0.00 98 1016.1
20260510105100 58 0 0.0 0.0 0.00 0.00 0.00 98 1016.0
20260510104614 58 0 0.0 0.0 0.00 0.00 0.00 98 1016.0
20260510104059 58 0 0.0 0.0 0.00 0.00 0.00 98 1015.9
20260510103557 57 0 0.0 0.0 0.00 0.00 0.00 98 1015.8
20260510103101 57 0 0.0 0.0 0.00 0.00 0.00 98 1015.6
20260510102557 57 0 0.0 0.0 0.00 0.00 0.00 98 1015.6
20260510102057 56 0 0.0 0.0 0.00 0.00 0.00 98 1015.7
20260510101555 56 0 0.0 0.0 0.00 0.00 0.00 98 1015.6
20260510101057 56 0 0.0 0.0 0.00 0.00 0.00 98 1015.7
20260510100557 56 0 0.0 0.0 0.00 0.00 0.00 98 1015.7
20260510100058 56 0 0.0 0.0 0.00 0.00 0.00 98 1015.6
20260510095557 55 0 0.0 0.0 0.00 0.00 0.00 97 1015.6
20260510095115 55 0 0.0 0.0 0.00 0.00 0.00 98 1015.4
20260510094600 55 0 0.0 0.0 0.00 0.00 0.00 98 1015.4
20260510094056 55 0 0.0 0.0 0.00 0.00 0.00 97 1015.4
20260510093557 55 0 0.0 0.0 0.00 0.00 0.00 97 1015.3
20260510093057 55 0 0.0 0.0 0.00 0.00 0.00 98 1015.3
20260510092556 55 0 0.0 0.0 0.00 0.00 0.00 97 1015.4
20260510092058 55 0 0.0 0.0 0.00 0.00 0.00 97 1015.4
20260510091558 56 0 0.0 0.0 0.00 0.00 0.00 97 1015.5
20260510091055 56 0 0.0 0.0 0.00 0.00 0.00 97 1015.5
20260510090554 56 0 0.0 0.0 0.00 0.00 0.00 97 1015.5
20260510090117 56 0 0.0 0.0 0.00 0.00 0.00 97 1015.6
20260510085553 56 0 0.0 0.0 0.00 0.00 0.00 97 1015.5
20260510085052 56 0 0.0 0.0 0.00 0.00 0.00 97 1015.4
20260510084600 56 0 0.0 0.0 0.00 0.00 0.00 97 1015.2
20260510084055 56 0 0.0 0.0 0.00 0.00 0.00 97 1015.1
20260510083552 56 0 0.0 0.0 0.00 0.00 0.00 97 1015.0
20260510083105 56 0 0.0 0.0 0.00 0.00 0.00 97 1014.9
20260510082552 56 0 0.0 0.0 0.00 0.00 0.00 97 1014.7
20260510082055 56 0 0.0 0.0 0.00 0.00 0.00 97 1014.8
20260510081554 56 0 0.0 0.0 0.00 0.00 0.00 97 1014.7
20260510081056 56 0 0.0 0.0 0.00 0.00 0.00 97 1014.5
20260510080555 56 0 0.0 0.0 0.00 0.00 0.00 97 1014.5
20260510080056 56 0 0.0 0.0 0.00 0.00 0.00 97 1014.5
20260510075555 57 0 0.0 0.0 0.00 0.00 0.00 97 1014.5
20260510075058 57 0 0.0 0.0 0.00 0.00 0.00 97 1014.4
20260510074619 57 0 0.0 0.0 0.00 0.00 0.00 97 1014.4
20260510074056 57 0 0.0 0.0 0.00 0.00 0.00 97 1014.4
20260510073556 57 0 0.0 0.0 0.00 0.00 0.00 97 1014.4
20260510073059 57 0 0.0 0.0 0.00 0.00 0.00 97 1014.4
20260510072555 57 0 0.0 0.0 0.00 0.00 0.00 97 1014.4
20260510072058 58 0 0.0 0.0 0.00 0.00 0.00 97 1014.5
20260510071602 58 0 0.0 0.0 0.00 0.00 0.00 97 1014.5
20260510071058 57 0 0.0 0.0 0.00 0.00 0.00 97 1014.5
20260510070555 57 0 0.0 0.0 0.00 0.00 0.00 97 1014.5
20260510070053 57 0 0.0 0.0 0.00 0.00 0.00 97 1014.4
20260510065557 57 0 0.0 0.0 0.00 0.00 0.00 97 1014.4
20260510065052 57 0 0.0 0.0 0.00 0.00 0.00 97 1014.4
20260510064610 58 0 0.0 0.0 0.00 0.00 0.00 97 1014.4
20260510064051 58 0 0.0 0.0 0.00 0.00 0.00 97 1014.5
20260510063552 58 0 0.0 0.0 0.00 0.00 0.00 97 1014.5
20260510063102 58 0 0.0 0.0 0.00 0.00 0.00 97 1014.4
20260510062556 58 0 0.0 0.0 0.00 0.00 0.00 97 1014.5
20260510062055 58 0 0.0 0.0 0.00 0.00 0.00 97 1014.4
20260510061554 58 0 0.0 0.0 0.00 0.00 0.00 97 1014.5
20260510061056 58 0 0.0 0.0 0.00 0.00 0.00 97 1014.5
20260510060556 58 0 0.0 0.0 0.00 0.00 0.00 97 1014.5
20260510060100 58 0 0.0 0.0 0.00 0.00 0.00 97 1014.6
20260510055555 58 0 0.0 0.0 0.00 0.00 0.00 97 1014.6
20260510055055 58 0 0.0 0.0 0.00 0.00 0.00 97 1014.7
20260510054554 59 0 0.0 0.0 0.00 0.00 0.00 97 1014.7
20260510054054 59 0 0.0 0.0 0.00 0.00 0.00 97 1014.7
20260510053555 59 0 0.0 0.0 0.00 0.00 0.00 97 1014.7
20260510053053 59 0 0.0 0.0 0.00 0.00 0.00 96 1014.7
20260510052557 59 0 0.0 0.0 0.00 0.00 0.00 97 1014.7
20260510052055 59 0 0.0 0.0 0.00 0.00 0.00 97 1014.7
20260510051600 59 0 0.0 0.0 0.00 0.00 0.00 96 1014.7
20260510051056 59 0 0.0 0.0 0.00 0.00 0.00 97 1014.6
20260510050554 59 0 0.0 0.0 0.00 0.00 0.00 97 1014.6
20260510050059 59 0 0.0 0.0 0.00 0.00 0.00 96 1014.6
20260510045556 60 0 0.0 0.0 0.00 0.00 0.00 96 1014.7
20260510045056 59 0 0.0 0.0 0.00 0.00 0.00 96 1014.6
20260510044556 59 0 0.0 0.0 0.00 0.00 0.00 96 1014.7
20260510044055 60 0 0.0 0.0 0.00 0.00 0.00 96 1014.6
20260510043555 60 0 0.0 0.0 0.00 0.00 0.00 96 1014.8
20260510043103 60 0 0.0 0.0 0.00 0.00 0.00 96 1014.8
20260510042558 60 0 0.0 0.0 0.00 0.00 0.00 96 1014.9
20260510042055 60 0 0.0 0.0 0.00 0.00 0.00 96 1014.8
20260510041610 60 0 0.0 0.0 0.00 0.00 0.00 96 1014.9
20260510041057 60 0 0.0 0.0 0.00 0.00 0.00 96 1014.9
20260510040555 60 0 0.0 0.0 0.00 0.00 0.00 96 1014.9
20260510040058 60 0 0.0 0.0 0.00 0.00 0.00 96 1014.9
20260510035555 60 0 0.0 0.0 0.00 0.00 0.00 96 1014.8
20260510035055 61 0 0.0 0.0 0.00 0.00 0.00 96 1014.8
20260510034556 61 0 0.0 0.0 0.00 0.00 0.00 96 1014.8
20260510034056 61 0 0.0 0.0 0.00 0.00 0.00 96 1014.8
20260510033557 61 0 0.0 0.0 0.00 0.00 0.00 96 1014.8
20260510033058 61 0 0.0 0.0 0.00 0.00 0.00 96 1014.9
20260510032557 61 0 0.0 0.0 0.00 0.00 0.00 95 1014.9
20260510032100 61 0 0.0 0.0 0.00 0.00 0.00 95 1014.9
20260510031601 61 0 0.0 0.0 0.00 0.00 0.00 95 1014.9
20260510031057 62 0 0.0 0.0 0.00 0.00 0.00 95 1014.8
20260510030557 61 0 0.0 0.0 0.00 0.00 0.00 95 1014.7
20260510030100 61 0 0.0 0.0 0.00 0.00 0.00 95 1014.8
20260510025557 61 0 0.0 0.0 0.00 0.00 0.00 95 1014.7
20260510025059 62 0 0.0 0.0 0.00 0.00 0.00 95 1014.6
20260510024603 62 0 0.0 0.0 0.00 0.00 0.00 95 1014.5
20260510024058 62 0 0.0 0.0 0.00 0.00 0.00 94 1014.5
20260510023557 62 0 0.0 0.0 0.00 0.00 0.00 94 1014.4
20260510023057 62 0 0.0 0.0 0.00 0.00 0.00 94 1014.5
20260510022601 62 0 0.0 0.0 0.00 0.00 0.00 94 1014.3
20260510022057 63 0 0.0 0.0 0.00 0.00 0.00 94 1014.2
20260510021557 63 0 0.0 0.0 0.00 0.00 0.00 94 1014.0
20260510021101 63 0 0.0 0.0 0.00 0.00 0.00 94 1013.9
20260510020557 63 0 0.0 0.0 0.00 0.00 0.00 93 1013.8
20260510020057 63 0 0.0 0.0 0.00 0.00 0.00 93 1013.8
20260510015558 63 0 0.0 0.0 0.00 0.00 0.00 93 1013.6
20260510015058 64 0 0.0 0.0 0.00 0.00 0.00 92 1013.5
20260510014556 64 0 0.0 0.0 0.00 0.00 0.00 92 1013.4
20260510014057 64 0 0.0 0.0 0.00 0.00 0.00 92 1013.3
20260510013558 64 0 0.0 0.0 0.00 0.00 0.00 92 1013.3
20260510013107 65 0 0.0 0.0 0.00 0.00 0.00 91 1013.2
20260510012600 65 0 0.0 0.0 0.00 0.00 0.00 91 1013.1
20260510012057 65 0 0.0 0.0 0.00 0.00 0.00 91 1013.1
20260510011557 65 0 0.0 0.0 0.00 0.00 0.00 91 1013.0
20260510011057 65 0 0.0 0.0 0.00 0.00 0.00 91 1012.9
20260510010600 65 0 0.0 0.0 0.00 0.00 0.00 90 1013.0
20260510010110 66 0 0.0 0.0 0.00 0.00 0.00 89 1012.9
20260510005557 67 0 0.0 0.0 0.00 0.00 0.00 88 1012.8
20260510005057 67 0 0.0 0.0 0.00 0.00 0.00 88 1012.8
20260510004604 67 0 0.0 0.0 0.00 0.00 0.00 89 1012.7
20260510004057 67 0 0.0 0.0 0.00 0.00 0.00 89 1012.5
20260510003558 68 0 0.0 0.0 0.00 0.00 0.00 87 1012.4
20260510003127 68 0 0.0 0.0 0.00 0.00 0.00 84 1012.3
20260510002600 69 0 0.0 0.0 0.00 0.00 0.00 84 1012.3
20260510002057 69 0 0.0 0.0 0.00 0.00 0.00 84 1012.2
20260510001557 69 0 0.0 0.0 0.00 0.00 0.00 82 1012.2
20260510001059 69 0 0.0 0.0 0.00 0.00 0.00 84 1012.0
20260510000557 68 0 0.0 0.0 0.00 0.00 0.00 86 1012.2
20260510000115 68 0 0.0 1.0 0.00 0.00 0.00 87 1012.2
20260509235557 68 0 0.0 1.0 0.00 0.00 0.00 89 1012.2
20260509235057 69 0 0.0 0.0 0.00 0.00 0.00 89 1012.2
20260509234605 69 0 0.0 0.0 0.00 0.00 0.00 88 1012.1
20260509234100 69 0 0.0 0.0 0.00 0.00 0.00 86 1012.1
20260509233559 70 0 0.0 0.0 0.00 0.00 0.00 84 1011.9
20260509233057 70 0 0.0 0.0 0.00 0.00 0.00 81 1011.8
20260509232557 70 0 0.0 0.0 0.00 0.00 0.00 80 1012.0
20260509232058 70 0 0.0 0.0 0.00 0.00 0.00 79 1012.1
20260509231557 70 0 0.0 0.0 0.00 0.00 0.00 81 1012.1
20260509231056 70 0 0.0 0.0 0.00 0.00 0.00 81 1012.1
20260509230557 71 0 0.0 0.0 0.00 0.00 0.00 81 1012.0
20260509230105 71 0 0.0 0.0 0.00 0.00 0.00 81 1011.9
20260509225557 71 0 0.0 0.0 0.00 0.00 0.00 81 1012.0
20260509225057 72 0 0.0 0.0 0.00 0.00 0.00 80 1011.9
20260509224556 72 0 0.0 0.0 0.00 0.00 0.00 78 1011.9